| time (UTC) | temp F | wind direction | speed MPH | gust MPH | rain 1hr in | rain 24hr in | rain mn in | humidity % | barometer mb |
| 20260507192536 | 72 | 242 | 3.0 | 10.0 | 0.00 | 0.00 | 0.00 | 34 | 1009.0 |
| 20260507192036 | 71 | 243 | 3.0 | 11.0 | 0.00 | 0.00 | 0.00 | 33 | 1009.1 |
| 20260507191531 | 71 | 210 | 5.0 | 11.0 | 0.00 | 0.00 | 0.00 | 32 | 1009.1 |
| 20260507191047 | 72 | 304 | 5.0 | 8.0 | 0.00 | 0.00 | 0.00 | 34 | 1009.1 |
| 20260507190555 | 71 | 269 | 4.0 | 9.0 | 0.00 | 0.00 | 0.00 | 35 | 1009.2 |
| 20260507190032 | 70 | 276 | 3.0 | 8.0 | 0.00 | 0.00 | 0.00 | 34 | 1009.3 |
| 20260507185549 | 71 | 276 | 3.0 | 12.0 | 0.00 | 0.00 | 0.00 | 33 | 1009.4 |
| 20260507185043 | 71 | 209 | 5.0 | 12.0 | 0.00 | 0.00 | 0.00 | 32 | 1009.5 |
| 20260507184559 | 70 | 300 | 5.0 | 10.0 | 0.00 | 0.00 | 0.00 | 33 | 1009.6 |
| 20260507184032 | 70 | 226 | 4.0 | 10.0 | 0.00 | 0.00 | 0.00 | 33 | 1009.5 |
| 20260507183549 | 71 | 256 | 5.0 | 11.0 | 0.00 | 0.00 | 0.00 | 33 | 1009.7 |
| 20260507183045 | 71 | 300 | 5.0 | 12.0 | 0.00 | 0.00 | 0.00 | 34 | 1009.7 |
| 20260507182604 | 70 | 186 | 2.0 | 11.0 | 0.00 | 0.00 | 0.00 | 34 | 1009.7 |
| 20260507182037 | 69 | 262 | 5.0 | 11.0 | 0.00 | 0.00 | 0.00 | 35 | 1009.8 |
| 20260507181533 | 69 | 227 | 3.0 | 11.0 | 0.00 | 0.00 | 0.00 | 33 | 1009.9 |
| 20260507181049 | 69 | 264 | 6.0 | 11.0 | 0.00 | 0.00 | 0.00 | 34 | 1010.0 |
| 20260507180559 | 69 | 257 | 6.0 | 11.0 | 0.00 | 0.00 | 0.00 | 34 | 1010.0 |
| 20260507180033 | 69 | 267 | 6.0 | 11.0 | 0.00 | 0.00 | 0.00 | 33 | 1010.0 |
| 20260507175548 | 69 | 230 | 3.0 | 9.0 | 0.00 | 0.00 | 0.00 | 35 | 1010.0 |
| 20260507175044 | 69 | 5 | 6.0 | 12.0 | 0.00 | 0.00 | 0.00 | 33 | 1010.0 |
| 20260507174540 | 69 | 267 | 6.0 | 12.0 | 0.00 | 0.00 | 0.00 | 33 | 1010.3 |
| 20260507174039 | 69 | 308 | 6.0 | 12.0 | 0.00 | 0.00 | 0.00 | 32 | 1010.2 |
| 20260507173534 | 69 | 274 | 4.0 | 9.0 | 0.00 | 0.00 | 0.00 | 32 | 1010.1 |
| 20260507173031 | 69 | 278 | 5.0 | 10.0 | 0.00 | 0.00 | 0.00 | 32 | 1010.2 |
| 20260507172548 | 69 | 312 | 5.0 | 10.0 | 0.00 | 0.00 | 0.00 | 33 | 1010.3 |
| 20260507172104 | 68 | 204 | 5.0 | 10.0 | 0.00 | 0.00 | 0.00 | 33 | 1010.3 |
| 20260507171539 | 68 | 275 | 4.0 | 11.0 | 0.00 | 0.00 | 0.00 | 33 | 1010.4 |
| 20260507171035 | 68 | 163 | 6.0 | 13.0 | 0.00 | 0.00 | 0.00 | 33 | 1010.4 |
| 20260507170604 | 67 | 186 | 7.0 | 13.0 | 0.00 | 0.00 | 0.00 | 34 | 1010.6 |
| 20260507170041 | 66 | 233 | 4.0 | 13.0 | 0.00 | 0.00 | 0.00 | 33 | 1010.6 |
| 20260507165535 | 66 | 192 | 6.0 | 13.0 | 0.00 | 0.00 | 0.00 | 35 | 1010.7 |
| 20260507165048 | 66 | 228 | 5.0 | 10.0 | 0.00 | 0.00 | 0.00 | 35 | 1010.7 |
| 20260507164547 | 66 | 250 | 5.0 | 13.0 | 0.00 | 0.00 | 0.00 | 34 | 1010.8 |
| 20260507164043 | 66 | 216 | 7.0 | 13.0 | 0.00 | 0.00 | 0.00 | 37 | 1010.9 |
| 20260507163602 | 65 | 172 | 4.0 | 10.0 | 0.00 | 0.00 | 0.00 | 36 | 1011.0 |
| 20260507163038 | 65 | 276 | 4.0 | 10.0 | 0.00 | 0.00 | 0.00 | 38 | 1011.1 |
| 20260507162555 | 64 | 209 | 5.0 | 14.0 | 0.00 | 0.00 | 0.00 | 40 | 1011.2 |
| 20260507162051 | 64 | 159 | 6.0 | 14.0 | 0.00 | 0.00 | 0.00 | 40 | 1011.3 |
| 20260507161548 | 64 | 196 | 5.0 | 10.0 | 0.00 | 0.00 | 0.00 | 43 | 1011.3 |
| 20260507161046 | 63 | 234 | 2.0 | 10.0 | 0.00 | 0.00 | 0.00 | 43 | 1011.4 |
| 20260507160555 | 63 | 227 | 5.0 | 10.0 | 0.00 | 0.00 | 0.00 | 46 | 1011.5 |
| 20260507160034 | 62 | 238 | 5.0 | 9.0 | 0.00 | 0.00 | 0.00 | 46 | 1011.6 |
| 20260507155537 | 62 | 153 | 4.0 | 9.0 | 0.00 | 0.00 | 0.00 | 44 | 1011.7 |
| 20260507154543 | 62 | 212 | 4.0 | 11.0 | 0.00 | 0.00 | 0.00 | 49 | 1011.8 |
| 20260507154038 | 61 | 254 | 5.0 | 11.0 | 0.00 | 0.00 | 0.00 | 47 | 1011.8 |
| 20260507153536 | 61 | 212 | 4.0 | 7.0 | 0.00 | 0.00 | 0.00 | 50 | 1011.8 |
| 20260507153032 | 61 | 285 | 3.0 | 7.0 | 0.00 | 0.00 | 0.00 | 51 | 1011.8 |
| 20260507152548 | 60 | 231 | 3.0 | 9.0 | 0.00 | 0.00 | 0.00 | 52 | 1011.9 |
| 20260507152047 | 59 | 256 | 3.0 | 9.0 | 0.00 | 0.00 | 0.00 | 51 | 1012.0 |
| 20260507151535 | 59 | 269 | 4.0 | 9.0 | 0.00 | 0.00 | 0.00 | 52 | 1012.0 |
| 20260507151033 | 59 | 297 | 4.0 | 9.0 | 0.00 | 0.00 | 0.00 | 53 | 1011.9 |
| 20260507150603 | 58 | 260 | 4.0 | 11.0 | 0.00 | 0.00 | 0.00 | 53 | 1012.0 |
| 20260507150043 | 58 | 222 | 6.0 | 11.0 | 0.00 | 0.00 | 0.00 | 55 | 1012.1 |
| 20260507145540 | 58 | 262 | 2.0 | 8.0 | 0.00 | 0.00 | 0.00 | 57 | 1012.1 |
| 20260507145037 | 57 | 244 | 4.0 | 8.0 | 0.00 | 0.00 | 0.00 | 58 | 1012.2 |
| 20260507144532 | 57 | 257 | 3.0 | 8.0 | 0.00 | 0.00 | 0.00 | 58 | 1012.2 |
| 20260507144035 | 56 | 222 | 4.0 | 9.0 | 0.00 | 0.00 | 0.00 | 58 | 1012.3 |
| 20260507143042 | 55 | 272 | 3.0 | 8.0 | 0.00 | 0.00 | 0.00 | 62 | 1012.2 |
| 20260507142601 | 55 | 240 | 5.0 | 8.0 | 0.00 | 0.00 | 0.00 | 62 | 1012.4 |
| 20260507142039 | 55 | 226 | 4.0 | 7.0 | 0.00 | 0.00 | 0.00 | 63 | 1012.4 |
| 20260507141536 | 54 | 243 | 4.0 | 7.0 | 0.00 | 0.00 | 0.00 | 63 | 1012.4 |
| 20260507141034 | 54 | 255 | 3.0 | 7.0 | 0.00 | 0.00 | 0.00 | 64 | 1012.6 |
| 20260507140601 | 54 | 292 | 4.0 | 9.0 | 0.00 | 0.00 | 0.00 | 65 | 1012.6 |
| 20260507140041 | 53 | 262 | 4.0 | 9.0 | 0.00 | 0.00 | 0.00 | 66 | 1012.6 |
| 20260507135538 | 53 | 212 | 5.0 | 8.0 | 0.00 | 0.00 | 0.00 | 68 | 1012.7 |
| 20260507135037 | 52 | 246 | 3.0 | 8.0 | 0.00 | 0.00 | 0.00 | 68 | 1012.6 |
| 20260507134534 | 52 | 238 | 4.0 | 8.0 | 0.00 | 0.00 | 0.00 | 68 | 1012.6 |
| 20260507134032 | 51 | 230 | 3.0 | 7.0 | 0.00 | 0.00 | 0.00 | 70 | 1012.6 |
| 20260507133549 | 51 | 226 | 5.0 | 7.0 | 0.00 | 0.00 | 0.00 | 71 | 1012.6 |
| 20260507133046 | 50 | 251 | 3.0 | 6.0 | 0.00 | 0.00 | 0.00 | 73 | 1012.7 |
| 20260507132543 | 50 | 222 | 3.0 | 6.0 | 0.00 | 0.00 | 0.00 | 74 | 1012.7 |
| 20260507132045 | 49 | 217 | 3.0 | 6.0 | 0.00 | 0.00 | 0.00 | 74 | 1012.8 |
| 20260507131543 | 49 | 226 | 2.0 | 6.0 | 0.00 | 0.00 | 0.00 | 75 | 1012.7 |
| 20260507131100 | 48 | 240 | 2.0 | 5.0 | 0.00 | 0.00 | 0.00 | 76 | 1012.8 |
| 20260507130622 | 48 | 219 | 3.0 | 6.0 | 0.00 | 0.00 | 0.00 | 76 | 1012.9 |
| 20260507130044 | 47 | 219 | 4.0 | 6.0 | 0.00 | 0.00 | 0.00 | 77 | 1013.0 |
| 20260507125543 | 47 | 227 | 3.0 | 7.0 | 0.00 | 0.00 | 0.00 | 77 | 1013.0 |
| 20260507125059 | 47 | 253 | 3.0 | 6.0 | 0.00 | 0.00 | 0.00 | 78 | 1013.0 |
| 20260507124536 | 46 | 221 | 3.0 | 6.0 | 0.00 | 0.00 | 0.00 | 78 | 1013.0 |
| 20260507124032 | 46 | 223 | 2.0 | 7.0 | 0.00 | 0.00 | 0.00 | 78 | 1013.0 |
| 20260507123531 | 46 | 223 | 4.0 | 7.0 | 0.00 | 0.00 | 0.00 | 78 | 1012.9 |
| 20260507123047 | 46 | 221 | 3.0 | 7.0 | 0.00 | 0.00 | 0.00 | 79 | 1012.9 |
| 20260507122545 | 45 | 223 | 2.0 | 6.0 | 0.00 | 0.00 | 0.00 | 79 | 1012.9 |
| 20260507122104 | 45 | 224 | 1.0 | 4.0 | 0.00 | 0.00 | 0.00 | 79 | 1013.0 |
| 20260507121540 | 45 | 223 | 3.0 | 4.0 | 0.00 | 0.00 | 0.00 | 79 | 1013.0 |
| 20260507121037 | 45 | 223 | 2.0 | 5.0 | 0.00 | 0.00 | 0.00 | 79 | 1013.0 |
| 20260507120607 | 45 | 223 | 2.0 | 5.0 | 0.00 | 0.00 | 0.00 | 79 | 1013.0 |
| 20260507120043 | 45 | 223 | 2.0 | 4.0 | 0.00 | 0.00 | 0.00 | 79 | 1013.0 |
| 20260507115539 | 45 | 223 | 1.0 | 4.0 | 0.00 | 0.00 | 0.00 | 79 | 1012.9 |
| 20260507115035 | 45 | 223 | 2.0 | 5.0 | 0.00 | 0.00 | 0.00 | 78 | 1012.9 |
| 20260507114532 | 45 | 223 | 1.0 | 5.0 | 0.00 | 0.00 | 0.00 | 78 | 1012.9 |
| 20260507114049 | 45 | 224 | 2.0 | 3.0 | 0.00 | 0.00 | 0.00 | 78 | 1012.9 |
| 20260507113546 | 45 | 224 | 1.0 | 3.0 | 0.00 | 0.00 | 0.00 | 78 | 1012.9 |
| 20260507113040 | 45 | 224 | 2.0 | 4.0 | 0.00 | 0.00 | 0.00 | 78 | 1012.9 |
| 20260507112557 | 45 | 224 | 2.0 | 4.0 | 0.00 | 0.00 | 0.00 | 77 | 1012.9 |
| 20260507112034 | 45 | 224 | 2.0 | 5.0 | 0.00 | 0.00 | 0.00 | 77 | 1012.9 |
| 20260507111534 | 45 | 224 | 2.0 | 5.0 | 0.00 | 0.00 | 0.00 | 77 | 1012.9 |
| 20260507111031 | 46 | 224 | 3.0 | 5.0 | 0.00 | 0.00 | 0.00 | 77 | 1012.9 |
| 20260507110558 | 46 | 224 | 3.0 | 8.0 | 0.00 | 0.00 | 0.00 | 76 | 1012.9 |
| 20260507110036 | 46 | 223 | 4.0 | 8.0 | 0.00 | 0.00 | 0.00 | 76 | 1012.9 |
| 20260507105534 | 46 | 226 | 3.0 | 7.0 | 0.00 | 0.00 | 0.00 | 76 | 1012.8 |
| 20260507105032 | 46 | 225 | 3.0 | 5.0 | 0.00 | 0.00 | 0.00 | 76 | 1012.8 |
| 20260507104550 | 46 | 225 | 3.0 | 5.0 | 0.00 | 0.00 | 0.00 | 75 | 1012.8 |
| 20260507104048 | 46 | 225 | 3.0 | 7.0 | 0.00 | 0.00 | 0.00 | 75 | 1012.8 |
| 20260507103546 | 46 | 228 | 4.0 | 7.0 | 0.00 | 0.00 | 0.00 | 75 | 1012.8 |
| 20260507103046 | 46 | 231 | 3.0 | 5.0 | 0.00 | 0.00 | 0.00 | 75 | 1012.8 |
| 20260507102541 | 47 | 231 | 4.0 | 5.0 | 0.00 | 0.00 | 0.00 | 75 | 1012.7 |
| 20260507102058 | 47 | 231 | 3.0 | 5.0 | 0.00 | 0.00 | 0.00 | 75 | 1012.8 |
| 20260507101534 | 47 | 224 | 3.0 | 6.0 | 0.00 | 0.00 | 0.00 | 74 | 1012.8 |
| 20260507101051 | 47 | 224 | 3.0 | 6.0 | 0.00 | 0.00 | 0.00 | 74 | 1012.8 |
| 20260507100557 | 47 | 224 | 3.0 | 6.0 | 0.00 | 0.00 | 0.00 | 74 | 1012.8 |
| 20260507100035 | 47 | 223 | 3.0 | 6.0 | 0.00 | 0.00 | 0.00 | 74 | 1012.9 |
| 20260507095532 | 47 | 219 | 3.0 | 5.0 | 0.00 | 0.00 | 0.00 | 74 | 1013.0 |
| 20260507095048 | 47 | 219 | 3.0 | 6.0 | 0.00 | 0.00 | 0.00 | 73 | 1013.0 |
| 20260507094546 | 47 | 218 | 3.0 | 5.0 | 0.00 | 0.00 | 0.00 | 73 | 1013.1 |
| 20260507094048 | 47 | 218 | 3.0 | 5.0 | 0.00 | 0.00 | 0.00 | 73 | 1013.1 |
| 20260507093545 | 47 | 214 | 3.0 | 4.0 | 0.00 | 0.00 | 0.00 | 72 | 1013.2 |
| 20260507093044 | 47 | 214 | 3.0 | 5.0 | 0.00 | 0.00 | 0.00 | 72 | 1013.2 |
| 20260507092541 | 47 | 213 | 3.0 | 5.0 | 0.00 | 0.00 | 0.00 | 72 | 1013.3 |
| 20260507092039 | 47 | 213 | 3.0 | 5.0 | 0.00 | 0.00 | 0.00 | 72 | 1013.3 |
| 20260507091556 | 47 | 212 | 3.0 | 5.0 | 0.00 | 0.00 | 0.00 | 71 | 1013.3 |
| 20260507091033 | 47 | 212 | 3.0 | 6.0 | 0.00 | 0.00 | 0.00 | 71 | 1013.4 |
| 20260507090600 | 47 | 212 | 3.0 | 6.0 | 0.00 | 0.00 | 0.00 | 70 | 1013.4 |
| 20260507090040 | 47 | 209 | 3.0 | 5.0 | 0.00 | 0.00 | 0.00 | 70 | 1013.5 |
| 20260507085538 | 47 | 207 | 3.0 | 4.0 | 0.00 | 0.00 | 0.00 | 69 | 1013.6 |
| 20260507085036 | 47 | 207 | 3.0 | 4.0 | 0.00 | 0.00 | 0.00 | 69 | 1013.6 |
| 20260507084553 | 47 | 207 | 2.0 | 5.0 | 0.00 | 0.00 | 0.00 | 68 | 1013.7 |
| 20260507084047 | 46 | 206 | 3.0 | 5.0 | 0.00 | 0.00 | 0.00 | 68 | 1013.7 |
| 20260507083546 | 46 | 205 | 2.0 | 4.0 | 0.00 | 0.00 | 0.00 | 67 | 1013.8 |
| 20260507083043 | 46 | 205 | 3.0 | 4.0 | 0.00 | 0.00 | 0.00 | 67 | 1013.8 |
| 20260507082603 | 46 | 203 | 2.0 | 3.0 | 0.00 | 0.00 | 0.00 | 66 | 1013.9 |
| 20260507082038 | 47 | 203 | 2.0 | 4.0 | 0.00 | 0.00 | 0.00 | 65 | 1013.9 |
| 20260507081537 | 47 | 203 | 2.0 | 4.0 | 0.00 | 0.00 | 0.00 | 64 | 1014.0 |
| 20260507081035 | 47 | 202 | 2.0 | 4.0 | 0.00 | 0.00 | 0.00 | 63 | 1014.0 |
| 20260507080600 | 47 | 202 | 2.0 | 4.0 | 0.00 | 0.00 | 0.00 | 62 | 1014.1 |
| 20260507080059 | 47 | 202 | 1.0 | 3.0 | 0.00 | 0.00 | 0.00 | 61 | 1014.1 |
| 20260507075539 | 47 | 202 | 1.0 | 3.0 | 0.00 | 0.00 | 0.00 | 61 | 1014.2 |
| 20260507075057 | 47 | 202 | 2.0 | 4.0 | 0.00 | 0.00 | 0.00 | 60 | 1014.2 |
| 20260507074533 | 47 | 201 | 3.0 | 4.0 | 0.00 | 0.00 | 0.00 | 59 | 1014.3 |
| 20260507074048 | 47 | 200 | 2.0 | 4.0 | 0.00 | 0.00 | 0.00 | 59 | 1014.2 |
| 20260507073547 | 47 | 198 | 2.0 | 4.0 | 0.00 | 0.00 | 0.00 | 58 | 1014.3 |
| 20260507073042 | 47 | 197 | 2.0 | 3.0 | 0.00 | 0.00 | 0.00 | 57 | 1014.5 |
| 20260507072541 | 47 | 197 | 2.0 | 3.0 | 0.00 | 0.00 | 0.00 | 56 | 1014.5 |
| 20260507072038 | 47 | 197 | 2.0 | 3.0 | 0.00 | 0.00 | 0.00 | 56 | 1014.6 |
| 20260507071535 | 48 | 197 | 1.0 | 3.0 | 0.00 | 0.00 | 0.00 | 55 | 1014.6 |
| 20260507071033 | 48 | 197 | 2.0 | 3.0 | 0.00 | 0.00 | 0.00 | 55 | 1014.6 |
| 20260507070600 | 48 | 197 | 1.0 | 3.0 | 0.00 | 0.00 | 0.00 | 54 | 1014.7 |
| 20260507070059 | 48 | 197 | 1.0 | 3.0 | 0.00 | 0.00 | 0.00 | 54 | 1014.8 |
| 20260507065536 | 48 | 197 | 2.0 | 3.0 | 0.00 | 0.00 | 0.00 | 54 | 1014.9 |
| 20260507065034 | 48 | 196 | 2.0 | 4.0 | 0.00 | 0.00 | 0.00 | 53 | 1014.9 |
| 20260507064530 | 48 | 196 | 3.0 | 4.0 | 0.00 | 0.00 | 0.00 | 53 | 1015.1 |
| 20260507064047 | 48 | 181 | 2.0 | 4.0 | 0.00 | 0.00 | 0.00 | 52 | 1015.1 |
| 20260507063545 | 48 | 178 | 2.0 | 4.0 | 0.00 | 0.00 | 0.00 | 52 | 1015.1 |
| 20260507063044 | 48 | 177 | 2.0 | 3.0 | 0.00 | 0.00 | 0.00 | 51 | 1015.1 |
| 20260507062603 | 48 | 176 | 1.0 | 3.0 | 0.00 | 0.00 | 0.00 | 51 | 1015.2 |
| 20260507062040 | 48 | 176 | 2.0 | 3.0 | 0.00 | 0.00 | 0.00 | 50 | 1015.2 |
| 20260507061542 | 48 | 176 | 2.0 | 4.0 | 0.00 | 0.00 | 0.00 | 50 | 1015.2 |
| 20260507061039 | 48 | 174 | 2.0 | 4.0 | 0.00 | 0.00 | 0.00 | 48 | 1015.2 |
| 20260507060607 | 48 | 265 | 2.0 | 3.0 | 0.00 | 0.00 | 0.00 | 48 | 1015.4 |
| 20260507060046 | 48 | 265 | 2.0 | 2.0 | 0.00 | 0.00 | 0.00 | 48 | 1015.4 |
| 20260507055543 | 48 | 265 | 1.0 | 3.0 | 0.00 | 0.00 | 0.00 | 47 | 1015.5 |
| 20260507055041 | 48 | 265 | 1.0 | 3.0 | 0.00 | 0.00 | 0.00 | 47 | 1015.5 |
| 20260507054537 | 48 | 265 | 1.0 | 2.0 | 0.00 | 0.00 | 0.00 | 47 | 1015.4 |
| 20260507054035 | 48 | 265 | 1.0 | 2.0 | 0.00 | 0.00 | 0.00 | 47 | 1015.5 |
| 20260507053531 | 48 | 265 | 1.0 | 2.0 | 0.00 | 0.00 | 0.00 | 47 | 1015.3 |
| 20260507053050 | 48 | 265 | 0.0 | 2.0 | 0.00 | 0.00 | 0.00 | 48 | 1015.3 |
| 20260507052546 | 48 | 265 | 1.0 | 2.0 | 0.00 | 0.00 | 0.00 | 47 | 1015.4 |
| 20260507052044 | 48 | 265 | 0.0 | 2.0 | 0.00 | 0.00 | 0.00 | 46 | 1015.5 |
| 20260507051540 | 49 | 265 | 0.0 | 2.0 | 0.00 | 0.00 | 0.00 | 47 | 1015.5 |
| 20260507051057 | 49 | 265 | 1.0 | 2.0 | 0.00 | 0.00 | 0.00 | 46 | 1015.4 |
| 20260507050605 | 49 | 265 | 1.0 | 2.0 | 0.00 | 0.00 | 0.00 | 45 | 1015.5 |
| 20260507050043 | 49 | 265 | 0.0 | 1.0 | 0.00 | 0.00 | 0.00 | 45 | 1015.5 |
| 20260507045600 | 49 | 265 | 0.0 | 2.0 | 0.00 | 0.00 | 0.00 | 45 | 1015.4 |
| 20260507045036 | 49 | 265 | 1.0 | 2.0 | 0.00 | 0.00 | 0.00 | 44 | 1015.5 |
| 20260507044538 | 49 | 265 | 0.0 | 2.0 | 0.00 | 0.00 | 0.00 | 44 | 1015.6 |
| 20260507044035 | 49 | 265 | 1.0 | 2.0 | 0.00 | 0.00 | 0.00 | 44 | 1015.7 |
| 20260507043532 | 49 | 265 | 0.0 | 2.0 | 0.00 | 0.00 | 0.00 | 44 | 1015.7 |
| 20260507043048 | 49 | 265 | 1.0 | 2.0 | 0.00 | 0.00 | 0.00 | 44 | 1015.8 |
| 20260507042546 | 49 | 265 | 1.0 | 2.0 | 0.00 | 0.00 | 0.00 | 44 | 1015.7 |
| 20260507042044 | 50 | 265 | 1.0 | 2.0 | 0.00 | 0.00 | 0.00 | 43 | 1015.8 |
| 20260507041602 | 50 | 265 | 0.0 | 1.0 | 0.00 | 0.00 | 0.00 | 44 | 1015.8 |
| 20260507041036 | 50 | 265 | 1.0 | 2.0 | 0.00 | 0.00 | 0.00 | 43 | 1015.8 |
| 20260507040605 | 50 | 265 | 1.0 | 2.0 | 0.00 | 0.00 | 0.00 | 44 | 1015.9 |
| 20260507040035 | 50 | 265 | 0.0 | 0.0 | 0.00 | 0.00 | 0.00 | 43 | 1015.9 |
| 20260507035532 | 50 | 265 | 0.0 | 0.0 | 0.00 | 0.00 | 0.00 | 43 | 1015.9 |
| 20260507035049 | 50 | 265 | 0.0 | 0.0 | 0.00 | 0.00 | 0.00 | 43 | 1016.0 |
| 20260507034542 | 49 | 265 | 0.0 | 1.0 | 0.00 | 0.00 | 0.00 | 44 | 1016.0 |
| 20260507033547 | 49 | 265 | 0.0 | 1.0 | 0.00 | 0.00 | 0.00 | 46 | 1016.0 |
| 20260507033044 | 49 | 265 | 0.0 | 1.0 | 0.00 | 0.00 | 0.00 | 45 | 1016.1 |
| 20260507032600 | 50 | 265 | 0.0 | 1.0 | 0.00 | 0.00 | 0.00 | 45 | 1016.1 |
| 20260507032035 | 50 | 265 | 0.0 | 1.0 | 0.00 | 0.00 | 0.00 | 44 | 1016.1 |
| 20260507031551 | 50 | 265 | 0.0 | 2.0 | 0.00 | 0.00 | 0.00 | 44 | 1016.1 |
| 20260507031046 | 50 | 265 | 1.0 | 4.0 | 0.00 | 0.00 | 0.00 | 43 | 1016.1 |
| 20260507030554 | 50 | 265 | 1.0 | 4.0 | 0.00 | 0.00 | 0.00 | 43 | 1016.2 |
| 20260507030035 | 51 | 278 | 0.0 | 1.0 | 0.00 | 0.00 | 0.00 | 43 | 1016.2 |
| 20260507025550 | 51 | 278 | 0.0 | 1.0 | 0.00 | 0.00 | 0.00 | 38 | 1016.1 |
| 20260507025045 | 51 | 278 | 0.0 | 1.0 | 0.00 | 0.00 | 0.00 | 40 | 1016.1 |
| 20260507024540 | 51 | 278 | 0.0 | 0.0 | 0.00 | 0.00 | 0.00 | 41 | 1016.0 |
| 20260507023544 | 51 | 278 | 0.0 | 1.0 | 0.00 | 0.00 | 0.00 | 40 | 1016.0 |
| 20260507023037 | 51 | 278 | 0.0 | 1.0 | 0.00 | 0.00 | 0.00 | 43 | 1015.9 |
| 20260507022534 | 51 | 278 | 1.0 | 1.0 | 0.00 | 0.00 | 0.00 | 41 | 1015.9 |
| 20260507022048 | 52 | 277 | 1.0 | 1.0 | 0.00 | 0.00 | 0.00 | 42 | 1015.9 |
| 20260507021545 | 52 | 278 | 0.0 | 0.0 | 0.00 | 0.00 | 0.00 | 40 | 1015.9 |
| 20260507021041 | 52 | 277 | 0.0 | 0.0 | 0.00 | 0.00 | 0.00 | 40 | 1015.8 |
| 20260507020632 | 52 | 277 | 0.0 | 0.0 | 0.00 | 0.00 | 0.00 | 39 | 1015.8 |
| 20260507020045 | 53 | 277 | 0.0 | 0.0 | 0.00 | 0.00 | 0.00 | 39 | 1015.8 |
| 20260507015542 | 53 | 278 | 0.0 | 1.0 | 0.00 | 0.00 | 0.00 | 37 | 1015.8 |
| 20260507015038 | 53 | 277 | 0.0 | 1.0 | 0.00 | 0.00 | 0.00 | 36 | 1015.8 |
| 20260507014554 | 54 | 277 | 0.0 | 1.0 | 0.00 | 0.00 | 0.00 | 36 | 1015.8 |
| 20260507013532 | 55 | 277 | 0.0 | 1.0 | 0.00 | 0.00 | 0.00 | 35 | 1015.7 |
| 20260507013113 | 55 | 277 | 0.0 | 1.0 | 0.00 | 0.00 | 0.00 | 34 | 1015.8 |
| 20260507012548 | 56 | 277 | 0.0 | 1.0 | 0.00 | 0.00 | 0.00 | 33 | 1015.6 |
| 20260507012046 | 56 | 278 | 0.0 | 1.0 | 0.00 | 0.00 | 0.00 | 32 | 1015.6 |
| 20260507011548 | 57 | 278 | 0.0 | 1.0 | 0.00 | 0.00 | 0.00 | 32 | 1015.7 |
| 20260507010553 | 58 | 278 | 1.0 | 4.0 | 0.00 | 0.00 | 0.00 | 30 | 1015.7 |
| 20260507010053 | 58 | 277 | 2.0 | 4.0 | 0.00 | 0.00 | 0.00 | 30 | 1015.8 |
| 20260507005610 | 58 | 246 | 1.0 | 3.0 | 0.00 | 0.00 | 0.00 | 31 | 1015.7 |
| 20260507005047 | 58 | 245 | 2.0 | 5.0 | 0.00 | 0.00 | 0.00 | 30 | 1015.8 |
| 20260507004544 | 58 | 245 | 2.0 | 5.0 | 0.00 | 0.00 | 0.00 | 29 | 1015.8 |
| 20260507004105 | 59 | 241 | 2.0 | 5.0 | 0.00 | 0.00 | 0.00 | 29 | 1015.7 |
| 20260507003541 | 59 | 323 | 1.0 | 5.0 | 0.00 | 0.00 | 0.00 | 29 | 1015.8 |
| 20260507003040 | 59 | 282 | 3.0 | 6.0 | 0.00 | 0.00 | 0.00 | 29 | 1015.9 |
| 20260507002537 | 59 | 285 | 2.0 | 7.0 | 0.00 | 0.00 | 0.00 | 30 | 1015.8 |
| 20260507001545 | 59 | 267 | 2.0 | 6.0 | 0.00 | 0.00 | 0.00 | 30 | 1015.9 |
| 20260507001043 | 59 | 266 | 3.0 | 7.0 | 0.00 | 0.00 | 0.00 | 29 | 1016.0 |
| 20260507000551 | 60 | 255 | 3.0 | 7.0 | 0.00 | 0.00 | 0.00 | 28 | 1016.0 |
| 20260507000050 | 60 | 274 | 1.0 | 5.0 | 0.00 | 0.00 | 0.00 | 29 | 1016.0 |
| 20260506235546 | 60 | 276 | 1.0 | 7.0 | 0.00 | 0.00 | 0.00 | 30 | 1016.1 |
| 20260506235043 | 60 | 342 | 1.0 | 7.0 | 0.00 | 0.00 | 0.00 | 29 | 1016.1 |
| 20260506234541 | 59 | 314 | 1.0 | 6.0 | 0.00 | 0.00 | 0.00 | 31 | 1016.2 |
| 20260506234044 | 59 | 328 | 3.0 | 8.0 | 0.00 | 0.00 | 0.00 | 28 | 1016.3 |
| 20260506233543 | 60 | 277 | 5.0 | 10.0 | 0.00 | 0.00 | 0.00 | 29 | 1016.2 |
| 20260506233042 | 60 | 269 | 4.0 | 10.0 | 0.00 | 0.00 | 0.00 | 28 | 1016.2 |
| 20260506232559 | 60 | 288 | 2.0 | 6.0 | 0.00 | 0.00 | 0.00 | 29 | 1016.2 |
| 20260506232036 | 60 | 309 | 4.0 | 6.0 | 0.00 | 0.00 | 0.00 | 28 | 1016.3 |
| 20260506231536 | 60 | 256 | 2.0 | 8.0 | 0.00 | 0.00 | 0.00 | 29 | 1016.2 |
| 20260506231034 | 60 | 256 | 3.0 | 8.0 | 0.00 | 0.00 | 0.00 | 28 | 1016.3 |
| 20260506230604 | 60 | 344 | 3.0 | 6.0 | 0.00 | 0.00 | 0.00 | 29 | 1016.5 |
| 20260506230106 | 59 | 302 | 3.0 | 9.0 | 0.00 | 0.00 | 0.00 | 28 | 1016.5 |
| 20260506225606 | 60 | 277 | 3.0 | 11.0 | 0.00 | 0.00 | 0.00 | 28 | 1016.5 |
| 20260506225104 | 60 | 1 | 6.0 | 11.0 | 0.00 | 0.00 | 0.00 | 29 | 1016.5 |
| 20260506224542 | 60 | 297 | 4.0 | 9.0 | 0.00 | 0.00 | 0.00 | 28 | 1016.5 |
| 20260506224039 | 60 | 276 | 4.0 | 9.0 | 0.00 | 0.00 | 0.00 | 28 | 1016.6 |
| 20260506223537 | 60 | 236 | 3.0 | 11.0 | 0.00 | 0.00 | 0.00 | 29 | 1016.6 |
| 20260506223055 | 60 | 264 | 6.0 | 11.0 | 0.00 | 0.00 | 0.00 | 28 | 1016.7 |
| 20260506222551 | 60 | 273 | 5.0 | 11.0 | 0.00 | 0.00 | 0.00 | 29 | 1016.7 |
| 20260506222047 | 60 | 257 | 4.0 | 12.0 | 0.00 | 0.00 | 0.00 | 28 | 1016.7 |
| 20260506221545 | 60 | 295 | 4.0 | 12.0 | 0.00 | 0.00 | 0.00 | 30 | 1016.8 |
| 20260506221044 | 60 | 337 | 5.0 | 10.0 | 0.00 | 0.00 | 0.00 | 30 | 1016.8 |
| 20260506220613 | 60 | 283 | 3.0 | 10.0 | 0.00 | 0.00 | 0.00 | 30 | 1016.8 |
| 20260506220113 | 60 | 347 | 5.0 | 10.0 | 0.00 | 0.00 | 0.00 | 30 | 1016.8 |
| 20260506215548 | 59 | 306 | 5.0 | 10.0 | 0.00 | 0.00 | 0.00 | 31 | 1016.9 |
| 20260506215043 | 59 | 310 | 3.0 | 9.0 | 0.00 | 0.00 | 0.00 | 30 | 1017.0 |
| 20260506214542 | 59 | 291 | 4.0 | 10.0 | 0.00 | 0.00 | 0.00 | 29 | 1016.9 |
| 20260506214058 | 59 | 342 | 6.0 | 10.0 | 0.00 | 0.00 | 0.00 | 28 | 1017.0 |
| 20260506213555 | 59 | 348 | 5.0 | 10.0 | 0.00 | 0.00 | 0.00 | 29 | 1017.0 |
| 20260506213037 | 60 | 348 | 5.0 | 11.0 | 0.00 | 0.00 | 0.00 | 29 | 1017.0 |
| 20260506212535 | 60 | 349 | 3.0 | 8.0 | 0.00 | 0.00 | 0.00 | 30 | 1017.0 |
| 20260506212052 | 60 | 345 | 3.0 | 8.0 | 0.00 | 0.00 | 0.00 | 30 | 1017.0 |
| 20260506211610 | 60 | 336 | 6.0 | 9.0 | 0.00 | 0.00 | 0.00 | 31 | 1017.2 |
| 20260506211047 | 59 | 226 | 3.0 | 11.0 | 0.00 | 0.00 | 0.00 | 29 | 1017.2 |
| 20260506210556 | 59 | 323 | 4.0 | 11.0 | 0.00 | 0.00 | 0.00 | 29 | 1017.3 |
| 20260506210036 | 60 | 306 | 5.0 | 12.0 | 0.00 | 0.00 | 0.00 | 30 | 1017.3 |
| 20260506205550 | 60 | 353 | 6.0 | 12.0 | 0.00 | 0.00 | 0.00 | 33 | 1017.5 |
| 20260506205048 | 60 | 314 | 2.0 | 14.0 | 0.00 | 0.00 | 0.00 | 32 | 1017.5 |
| 20260506204547 | 60 | 350 | 3.0 | 13.0 | 0.00 | 0.00 | 0.00 | 34 | 1017.6 |
| 20260506204045 | 60 | 305 | 5.0 | 12.0 | 0.00 | 0.00 | 0.00 | 31 | 1017.6 |
| 20260506203544 | 59 | 321 | 6.0 | 11.0 | 0.00 | 0.00 | 0.00 | 30 | 1017.7 |
| 20260506203042 | 58 | 319 | 4.0 | 9.0 | 0.00 | 0.00 | 0.00 | 32 | 1017.9 |
| 20260506202535 | 58 | 266 | 3.0 | 10.0 | 0.00 | 0.00 | 0.00 | 32 | 1017.9 |
| 20260506202035 | 58 | 278 | 2.0 | 8.0 | 0.00 | 0.00 | 0.00 | 32 | 1018.0 |
| 20260506201532 | 57 | 335 | 6.0 | 8.0 | 0.00 | 0.00 | 0.00 | 32 | 1018.1 |
| 20260506201031 | 57 | 291 | 2.0 | 9.0 | 0.00 | 0.00 | 0.00 | 31 | 1018.0 |
| 20260506200600 | 58 | 248 | 4.0 | 13.0 | 0.00 | 0.00 | 0.00 | 31 | 1018.1 |
| 20260506200044 | 59 | 265 | 5.0 | 13.0 | 0.00 | 0.00 | 0.00 | 32 | 1018.1 |
| 20260506195541 | 58 | 309 | 5.0 | 13.0 | 0.00 | 0.00 | 0.00 | 32 | 1018.3 |
| 20260506195039 | 57 | 5 | 6.0 | 13.0 | 0.00 | 0.00 | 0.00 | 31 | 1018.3 |
| 20260506194537 | 58 | 260 | 4.0 | 12.0 | 0.00 | 0.00 | 0.00 | 32 | 1018.2 |
| 20260506194055 | 58 | 280 | 6.0 | 12.0 | 0.00 | 0.00 | 0.00 | 31 | 1018.2 |
| 20260506193531 | 59 | 266 | 4.0 | 14.0 | 0.00 | 0.00 | 0.00 | 33 | 1018.2 |
| 20260506193048 | 58 | 339 | 5.0 | 14.0 | 0.00 | 0.00 | 0.00 | 31 | 1018.3 |